Flag Weather past 2 weeks in Suhl, Thuringia, Germany

Now
45 °F

Passing clouds.


Feels Like: 43 °F
Forecast: 34 / 47 °F
Wind: 5 mph from South

Location: Meiningen

Current Time: Nov 23, 2014 at 1:32:29 PM

Latest Report: Nov 23, 2014 at 1:00 PM


Visibility: 19 mi

Pressure: 30.23 "Hg

Humidity: 71%

Dew point: 36 °F

Location of SuhlLocation

Historic Weather in Suhl — Graph

°F

Suhl temperature yesterday

Maximum temperature yesterday: 36 °F (at 12:00 AM)
Minimum temperature yesterday: 32 °F (at 5:00 AM)
Average temperature yesterday: 35 °F

Past Weeks' High & Low Weather Summary

 TemperatureHumidityPressure
High53 °F (Nov 12, 1:00 PM)100% (Nov 10, 5:00 AM)30.36 "Hg (Nov 10, 5:00 AM)
Low32 °F (Nov 22, 5:00 AM)70% (Nov 17, 1:00 PM)29.50 "Hg (Nov 16, 6:00 AM)
Average42 °F93%29.94 "Hg
* Reported Nov 8 12:00 Noon — Nov 23 12:00 Noon, Suhl, Weather by CustomWeather, © 2014

Note: Actual official high and low records may vary slightly from our data, if they occured in-between our weather recording intervals... More about our weather records

Advertising

Suhl weather history for previous 24 hours

 ConditionsComfort  
Time TempWeatherWind HumidityBarometerVisibility
12:00 PM
Nov 23
43 °FPassing clouds.3 mph78%30.27 "Hg17 mi
11:00 AM40 °FFog.2 mph87%30.29 "Hg16 mi
10:00 AM36 °FFog.3 mph92%30.31 "Hg12 mi
9:00 AM35 °FFog.3 mph96%30.31 "Hg10 mi
8:00 AM33 °FFog.2 mph99%30.31 "Hg10 mi
7:00 AM33 °FFog.3 mph99%30.30 "Hg6 mi
6:00 AM33 °FFog.2 mph100%30.29 "Hg9 mi
5:00 AM33 °FClear.2 mph100%30.29 "Hg1 mi
3:00 AM34 °FClear.2 mph100%30.29 "Hg0 mi
2:00 AM34 °FPassing clouds.2 mph100%30.29 "Hg0 mi
1:00 AM35 °FPassing clouds.2 mph100%30.29 "Hg0 mi
12:00 AM36 °FLow clouds.3 mph100%30.29 "Hg0 mi
11:00 PM
Nov 22
36 °FLow clouds.3 mph100%30.29 "Hg0 mi
9:00 PM36 °FLow clouds.3 mph100%30.27 "Hg0 mi
8:00 PM36 °FLow clouds.3 mph100%30.27 "Hg0 mi
7:00 PM36 °FLow clouds.3 mph100%30.27 "Hg0 mi
6:00 PM36 °FLow clouds.3 mph100%30.27 "Hg0 mi
5:00 PM36 °FFog.3 mph100%30.26 "Hg1 mi
4:00 PM36 °FFog.5 mph98%30.25 "Hg1 mi
3:00 PM36 °FFog.5 mph98%30.24 "Hg1 mi
2:00 PM36 °FFog.5 mph95%30.24 "Hg2 mi
1:00 PM36 °FFog.3 mph92%30.26 "Hg2 mi
Weather by CustomWeather, © 2014

See weather overviewHow to use our weather pages